Weather History for PAHN - November, 2013

Change the Weather History Date:

Saturday, November 23, 2013

  Actual Average Record
Temperature  
Mean Temperature 34 °F -  
Max Temperature 39 °F 33 °F 51 °F (2005)
Min Temperature 27 °F 26 °F 4 °F (1990)
Degree Days  
Heating Degree Days 32    
Moisture  
Dew Point 33 °F    
Average Humidity 90    
Maximum Humidity 96    
Minimum Humidity 73    
Precipitation  
Precipitation 0.60 in - - ()
Sea Level Pressure  
Sea Level Pressure 29.88 in    
Wind  
Wind Speed 14 mph (ENE)    
Max Wind Speed 22 mph    
Max Gust Speed 38 mph    
Visibility 9 miles    
Events Rain    
Averages and records for this station are not official NWS values.
T = Trace of Precipitation, MM = Missing Value Source: NWS Daily Summary

Daily Weather History Graph

Daily Weather History Graph

Search for Another Location

Airport or City:

Trip Planner

Search our weather history database for the weather conditions in past years. The results will help you decide how hot, cold, wet, or windy it might be!

Date:

Astronomy

Nov. 23, 2013 Rise Set
Actual Time 8:15 AM AKST 3:21 PM AKST
Civil Twilight 7:25 AM AKST 4:11 PM AKST
Nautical Twilight 6:33 AM AKST 5:03 PM AKST
Astronomical Twilight 5:44 AM AKST 5:52 PM AKST
Moon 9:34 PM AKST (11/23) 12:03 PM AKST (11/23)
Length of Visible Light 8h 46m
Length of Day
7h 06m
Waning Gibbous, 68% of the Moon is Illuminated
Nov 23
Waning Gibbous
Nov 25
Last Quarter
Dec 2
New
Dec 9
First Quarter
Dec 17
Full

Hourly Weather History & Observations

Time (AKST) Temp. Windchill Dew Point Humidity Pressure Visibility Wind Dir Wind Speed Gust Speed Precip Events Conditions
12:54 AM 37.0 °F 27.7 °F 34.0 °F 89% 29.78 in 5.0 mi ENE 16.1 mph 25.3 mph 0.13 in Rain Rain
1:54 AM 37.0 °F 28.1 °F 34.0 °F 89% 29.76 in 5.0 mi ENE 15.0 mph 26.5 mph 0.13 in Rain Rain
2:54 AM 36.0 °F 26.3 °F 34.0 °F 93% 29.75 in 6.0 mi ENE 16.1 mph 25.3 mph 0.13 in Rain Rain
3:54 AM 37.0 °F 27.4 °F 34.0 °F 89% 29.73 in 9.0 mi East 17.3 mph 31.1 mph 0.02 in Rain Light Rain
4:54 AM 37.9 °F 27.3 °F 35.1 °F 89% 29.70 in 10.0 mi ENE 21.9 mph 34.5 mph 0.02 in Rain Light Rain
5:10 AM 39.2 °F 29.6 °F 35.6 °F 87% 29.69 in 10.0 mi East 19.6 mph 38.0 mph 0.00 in Rain Light Rain
5:24 AM 37.4 °F 27.2 °F 35.6 °F 93% 29.69 in 8.0 mi East 19.6 mph 28.8 mph 0.01 in Rain Light Rain
5:54 AM 37.9 °F 28.2 °F 35.1 °F 89% 29.69 in 10.0 mi East 18.4 mph 31.1 mph 0.04 in Rain Light Rain
6:19 AM 37.4 °F 27.8 °F 35.6 °F 93% 29.66 in 10.0 mi East 17.3 mph 31.1 mph 0.01 in Rain Light Rain
6:54 AM 37.9 °F 28.9 °F 35.1 °F 89% 29.68 in 10.0 mi East 16.1 mph 26.5 mph 0.01 in Rain Light Rain
7:04 AM 37.4 °F 27.2 °F 35.6 °F 93% 29.67 in 10.0 mi East 19.6 mph 31.1 mph 0.01 in Rain Light Rain
7:34 AM 37.4 °F 28.2 °F 35.6 °F 93% 29.68 in 8.0 mi ESE 16.1 mph 31.1 mph 0.04 in Rain Light Rain
7:54 AM 37.9 °F 30.0 °F 35.1 °F 89% 29.69 in 10.0 mi East 12.7 mph 28.8 mph 0.04 in Rain Light Rain
8:30 AM 37.4 °F 27.8 °F 35.6 °F 93% 29.70 in 10.0 mi East 17.3 mph 27.6 mph 0.00 in Rain Light Rain
8:54 AM 37.9 °F 29.6 °F 35.1 °F 89% 29.72 in 10.0 mi East 13.8 mph 27.6 mph 0.00 in Rain Light Rain
9:54 AM 39.0 °F 31.4 °F 36.0 °F 89% 29.75 in 10.0 mi ESE 12.7 mph 24.2 mph 0.00 in Rain Light Rain
10:18 AM 39.2 °F 31.6 °F 35.6 °F 87% 29.75 in 10.0 mi ESE 12.7 mph 23.0 mph 0.00 in   Overcast
10:45 AM 39.2 °F 32.5 °F 35.6 °F 87% 29.76 in 10.0 mi ESE 10.4 mph 20.7 mph 0.00 in Rain Light Rain
10:54 AM 39.9 °F 32.9 °F 35.1 °F 83% 29.78 in 10.0 mi ESE 11.5 mph 27.6 mph 0.00 in Rain Light Rain
11:50 AM 37.4 °F 32.8 °F 33.8 °F 87% 29.84 in 7.0 mi WNW 5.8 mph - 0.01 in Rain Light Rain
11:54 AM 37.0 °F 33.3 °F 34.0 °F 89% 29.85 in 5.0 mi WSW 4.6 mph - 0.02 in Rain Light Rain
12:54 PM 35.1 °F 30.1 °F 33.1 °F 92% 29.90 in 10.0 mi ESE 5.8 mph - 0.06 in Rain Light Rain
1:05 PM 35.6 °F 31.7 °F 33.8 °F 93% 29.90 in 10.0 mi NE 4.6 mph - 0.00 in   Scattered Clouds
1:54 PM 36.0 °F - 34.0 °F 93% 29.95 in 10.0 mi Calm Calm - 0.00 in Rain Light Rain
2:54 PM 36.0 °F 29.6 °F 32.0 °F 86% 30.00 in 10.0 mi ENE 8.1 mph - 0.00 in   Mostly Cloudy
3:54 PM 37.0 °F 32.4 °F 28.9 °F 73% 30.05 in 10.0 mi Variable 5.8 mph - N/A   Mostly Cloudy
4:54 PM 34.0 °F 29.8 °F 30.0 °F 85% 30.09 in 10.0 mi Variable 4.6 mph - N/A   Partly Cloudy
5:54 PM 33.1 °F 28.7 °F 30.0 °F 89% 30.12 in 10.0 mi ENE 4.6 mph - N/A   Clear
6:54 PM 30.9 °F 27.5 °F 28.9 °F 92% 30.17 in 10.0 mi NW 3.5 mph - N/A   Clear
7:54 PM 30.0 °F 26.5 °F 28.9 °F 96% 30.20 in 10.0 mi West 3.5 mph - N/A   Clear
8:54 PM 30.0 °F 23.2 °F 28.0 °F 92% 30.24 in 10.0 mi WNW 6.9 mph - N/A   Clear
9:54 PM 30.0 °F 23.2 °F 27.0 °F 88% 30.27 in 10.0 mi WNW 6.9 mph - N/A   Clear
10:54 PM 28.9 °F 20.4 °F 27.0 °F 92% 30.28 in 10.0 mi WNW 9.2 mph - N/A   Clear
11:54 PM 27.0 °F 18.0 °F 26.1 °F 96% 30.29 in 10.0 mi WNW 9.2 mph - N/A   Clear